GW2175 Weather Reports


time (UTC)temp
C
wind
direction
speed
KPH
gust
KPH
rain 1hr
cm
rain 24hr
cm
rain mn
cm
humidity
%
barometer
mb
20260504023656 20 234 4.8 4.8 0.00 0.00 0.00 65 1021.4
20260504023152 20 268 6.4 8.0 0.00 0.00 0.00 64 1021.3
20260504022649 20 184 3.2 3.2 0.00 0.00 0.00 65 1021.1
20260504022144 20 212 4.8 4.8 0.00 0.00 0.00 66 1021.2
20260504021642 20 231 1.6 3.2 0.00 0.00 0.00 66 1021.1
20260504021139 20 265 4.8 8.0 0.00 0.00 0.00 65 1021.1
20260504020636 20 194 3.2 3.2 0.00 0.00 0.00 64 1021.0
20260504020132 20 195 4.8 4.8 0.00 0.00 0.00 64 1021.1
20260504015629 20 254 6.4 9.7 0.00 0.00 0.00 64 1021.1
20260504015125 20 221 4.8 4.8 0.00 0.00 0.00 64 1020.9
20260504014621 20 306 4.8 8.0 0.00 0.00 0.00 65 1021.0
20260504014118 20 326 3.2 4.8 0.00 0.00 0.00 65 1021.0
20260504013616 20 254 4.8 4.8 0.00 0.00 0.00 64 1020.8
20260504013113 20 298 6.4 8.0 0.00 0.00 0.00 65 1020.5
20260504012610 20 173 1.6 1.6 0.00 0.00 0.00 67 1020.7
20260504012108 20 175 1.6 1.6 0.00 0.00 0.00 66 1020.6
20260504011604 20 197 3.2 3.2 0.00 0.00 0.00 64 1020.4
20260504011101 20 245 4.8 4.8 0.00 0.00 0.00 65 1020.3
20260504010556 20 180 1.6 1.6 0.00 0.00 0.00 65 1020.3
20260504010053 20 137 0.0 1.6 0.00 0.00 0.00 65 1020.4
20260504005549 20 146 3.2 3.2 0.00 0.00 0.00 64 1020.2
20260504005047 20 141 1.6 1.6 0.00 0.00 0.00 64 1020.4
20260504004544 20 145 1.6 1.6 0.00 0.00 0.00 64 1020.2
20260504004041 20 202 1.6 1.6 0.00 0.00 0.00 63 1020.1
20260504003537 21 58 1.6 1.6 0.00 0.00 0.00 60 1020.0
20260504003034 21 183 1.6 3.2 0.00 0.00 0.00 60 1020.2
20260504002531 21 151 1.6 1.6 0.00 0.00 0.00 59 1020.0
20260504002029 21 132 1.6 1.6 0.00 0.00 0.00 58 1019.9
20260504001526 22 112 0.0 0.0 0.00 0.00 0.00 51 1020.0
20260504001022 22 112 0.0 0.0 0.00 0.00 0.00 48 1019.9
20260504000520 23 112 0.0 1.6 0.00 0.00 0.00 46 1019.8
20260504000017 23 112 0.0 0.0 0.00 0.00 0.00 45 1019.9
20260503235515 24 113 0.0 1.6 0.00 0.00 0.00 45 1019.7
20260503235012 25 116 0.0 0.0 0.00 0.00 0.00 44 1019.5
20260503234509 25 116 0.0 0.0 0.00 0.00 0.00 42 1019.8
20260503234008 25 117 0.0 0.0 0.00 0.00 0.00 41 1020.0
20260503233503 25 124 0.0 0.0 0.00 0.00 0.00 41 1019.9
20260503233000 25 125 0.0 0.0 0.00 0.00 0.00 40 1019.9
20260503232457 25 126 1.6 1.6 0.00 0.00 0.00 39 1019.9
20260503231955 25 128 1.6 3.2 0.00 0.00 0.00 41 1020.3
20260503231452 25 132 0.0 1.6 0.00 0.00 0.00 42 1020.0
20260503230948 25 137 1.6 3.2 0.00 0.00 0.00 38 1019.9
20260503230445 25 112 0.0 0.0 0.00 0.00 0.00 39 1020.0
20260503225943 25 108 1.6 1.6 0.00 0.00 0.00 37 1019.8
20260503225439 26 306 3.2 3.2 0.00 0.00 0.00 38 1019.9
20260503224935 25 348 1.6 1.6 0.00 0.00 0.00 37 1020.1
20260503224432 26 327 4.8 4.8 0.00 0.00 0.00 38 1019.8
20260503223930 26 105 0.0 0.0 0.00 0.00 0.00 36 1019.9
20260503223427 25 111 0.0 1.6 0.00 0.00 0.00 36 1019.9
20260503222922 26 136 1.6 3.2 0.00 0.00 0.00 36 1019.9
20260503222421 26 153 1.6 1.6 0.00 0.00 0.00 38 1019.9
20260503221919 26 129 1.6 3.2 0.00 0.00 0.00 38 1020.0
20260503221417 26 150 1.6 1.6 0.00 0.00 0.00 37 1019.7
20260503220914 26 221 4.8 4.8 0.00 0.00 0.00 37 1020.0
20260503220410 25 108 0.0 1.6 0.00 0.00 0.00 37 1019.8
20260503215907 25 151 3.2 3.2 0.00 0.00 0.00 37 1019.8
20260503215404 26 150 1.6 1.6 0.00 0.00 0.00 37 1019.9
20260503214902 25 119 1.6 3.2 0.00 0.00 0.00 37 1020.1
20260503214359 26 293 3.2 3.2 0.00 0.00 0.00 37 1020.0
20260503213856 25 158 4.8 4.8 0.00 0.00 0.00 37 1019.9
20260503213354 26 104 1.6 1.6 0.00 0.00 0.00 36 1020.2
20260503212850 26 106 1.6 1.6 0.00 0.00 0.00 34 1020.1
20260503212349 26 144 3.2 3.2 0.00 0.00 0.00 38 1020.2
20260503211845 26 149 1.6 3.2 0.00 0.00 0.00 37 1020.1
20260503211342 25 144 1.6 3.2 0.00 0.00 0.00 37 1020.4
20260503210837 25 172 1.6 3.2 0.00 0.00 0.00 38 1020.6
20260503210335 25 155 3.2 3.2 0.00 0.00 0.00 41 1020.5
20260503205830 25 205 4.8 4.8 0.00 0.00 0.00 36 1020.5
20260503205326 26 140 3.2 3.2 0.00 0.00 0.00 39 1020.6
20260503204823 25 174 4.8 4.8 0.00 0.00 0.00 38 1020.8
20260503204321 25 282 4.8 4.8 0.00 0.00 0.00 35 1020.9
20260503203818 25 313 9.7 12.9 0.00 0.00 0.00 37 1021.0
20260503203315 25 16 4.8 4.8 0.00 0.00 0.00 35 1020.9
20260503202812 25 98 1.6 3.2 0.00 0.00 0.00 34 1021.0
20260503202310 25 136 0.0 1.6 0.00 0.00 0.00 38 1021.1
20260503201808 25 239 4.8 4.8 0.00 0.00 0.00 37 1021.3
20260503201305 25 260 4.8 4.8 0.00 0.00 0.00 37 1021.4
20260503200802 25 255 4.8 4.8 0.00 0.00 0.00 36 1021.4
20260503200257 25 85 4.8 4.8 0.00 0.00 0.00 35 1021.6
20260503195755 24 109 1.6 3.2 0.00 0.00 0.00 36 1021.4
20260503195251 25 199 3.2 3.2 0.00 0.00 0.00 34 1021.7
20260503194749 25 13 4.8 4.8 0.00 0.00 0.00 41 1021.6
20260503194245 24 267 4.8 8.0 0.00 0.00 0.00 37 1021.7
20260503193741 24 84 0.0 1.6 0.00 0.00 0.00 35 1022.1
20260503193237 25 198 3.2 3.2 0.00 0.00 0.00 37 1022.1
20260503192733 24 316 0.0 0.0 0.00 0.00 0.00 37 1021.9
20260503192228 24 44 1.6 3.2 0.00 0.00 0.00 35 1022.2
20260503191725 24 151 3.2 3.2 0.00 0.00 0.00 37 1022.3
20260503191222 24 334 1.6 3.2 0.00 0.00 0.00 38 1022.2
20260503190719 24 6 4.8 4.8 0.00 0.00 0.00 36 1022.5
20260503190216 24 129 6.4 8.0 0.00 0.00 0.00 36 1022.3
20260503185713 24 319 4.8 4.8 0.00 0.00 0.00 36 1022.8
20260503185208 23 147 1.6 1.6 0.00 0.00 0.00 39 1022.5
20260503184703 23 139 0.0 1.6 0.00 0.00 0.00 38 1022.8
20260503184200 23 117 3.2 3.2 0.00 0.00 0.00 36 1022.8
20260503183656 23 315 3.2 3.2 0.00 0.00 0.00 37 1022.9
20260503183154 23 214 4.8 4.8 0.00 0.00 0.00 38 1022.9
20260503182652 23 83 4.8 9.7 0.00 0.00 0.00 35 1023.2
20260503182150 23 261 4.8 9.7 0.00 0.00 0.00 36 1023.0
20260503181646 23 172 3.2 3.2 0.00 0.00 0.00 38 1023.3
20260503181143 23 163 3.2 3.2 0.00 0.00 0.00 37 1023.2
20260503180640 23 232 4.8 8.0 0.00 0.00 0.00 38 1023.4
20260503180138 23 106 3.2 3.2 0.00 0.00 0.00 40 1023.4
20260503175635 23 206 4.8 4.8 0.00 0.00 0.00 41 1023.2
20260503175132 23 265 9.7 12.9 0.00 0.00 0.00 39 1023.4
20260503174628 22 93 3.2 4.8 0.00 0.00 0.00 39 1023.5
20260503174126 22 128 1.6 1.6 0.00 0.00 0.00 38 1023.6
20260503173621 22 187 1.6 1.6 0.00 0.00 0.00 39 1023.6
20260503173117 22 290 4.8 8.0 0.00 0.00 0.00 39 1023.6
20260503172614 22 266 11.3 12.9 0.00 0.00 0.00 38 1023.5
20260503172112 22 219 6.4 8.0 0.00 0.00 0.00 39 1023.4
20260503171609 22 191 4.8 8.0 0.00 0.00 0.00 38 1023.4
20260503171106 22 187 3.2 3.2 0.00 0.00 0.00 38 1023.8
20260503170602 22 316 6.4 9.7 0.00 0.00 0.00 37 1023.8
20260503150954 21 177 1.6 3.2 0.00 0.00 0.00 56 1024.8
20260503150451 20 107 1.6 3.2 0.00 0.00 0.00 60 1024.6
20260503131344 14 113 0.0 0.0 0.00 0.00 0.00 78 1023.6
20260503130841 13 120 0.0 1.6 0.00 0.00 0.00 78 1023.7
20260503130339 13 136 1.6 3.2 0.00 0.00 0.00 77 1023.7
20260503110733 10 96 0.0 1.6 0.00 0.00 0.00 86 1022.9
20260503110230 10 101 3.2 3.2 0.00 0.00 0.00 86 1023.0
20260503100156 10 124 1.6 1.6 0.00 0.00 0.00 80 1022.3
20260503090115 10 125 3.2 3.2 0.00 0.00 0.00 80 1021.8
20260503081545 11 117 0.0 0.0 0.00 0.00 0.00 79 1021.8
20260503081042 11 117 0.0 0.0 0.00 0.00 0.00 77 1021.8
20260503080538 11 117 0.0 0.0 0.00 0.00 0.00 77 1021.5
20260503072512 11 117 0.0 0.0 0.00 0.00 0.00 79 1021.2
20260503072009 11 117 0.0 0.0 0.00 0.00 0.00 79 1021.4
20260503071506 11 117 0.0 0.0 0.00 0.00 0.00 79 1021.4
20260503071003 11 117 0.0 0.0 0.00 0.00 0.00 78 1021.1
20260503070459 12 117 0.0 0.0 0.00 0.00 0.00 78 1021.4
20260503054923 12 117 0.0 0.0 0.00 0.00 0.00 79 1021.0
20260503054419 12 117 0.0 0.0 0.00 0.00 0.00 78 1020.9
20260503053917 12 117 0.0 0.0 0.00 0.00 0.00 77 1021.2
20260503053415 12 117 0.0 1.6 0.00 0.00 0.00 77 1021.0
20260503052911 12 117 0.0 0.0 0.00 0.00 0.00 77 1020.9
20260503052408 13 117 0.0 1.6 0.00 0.00 0.00 77 1021.0
20260503051904 13 117 1.6 1.6 0.00 0.00 0.00 76 1020.9
20260503051400 13 117 0.0 0.0 0.00 0.00 0.00 75 1020.9
20260503050858 13 117 0.0 1.6 0.00 0.00 0.00 75 1021.1
20260503050354 13 117 0.0 0.0 0.00 0.00 0.00 74 1020.8
20260503045851 13 117 0.0 0.0 0.00 3.38 3.38 73 1021.1
20260503045349 13 117 0.0 0.0 0.00 3.38 3.38 74 1021.0
20260503044845 13 117 0.0 0.0 0.00 3.38 3.38 73 1020.7
20260503044342 13 117 0.0 0.0 0.00 3.38 3.38 72 1021.0
20260503043839 14 117 0.0 0.0 0.00 3.38 3.38 71 1020.7
20260503043336 14 117 0.0 0.0 0.00 3.38 3.38 71 1020.8
20260503042832 14 117 0.0 0.0 0.00 3.38 3.38 71 1020.7
20260503042329 14 118 0.0 1.6 0.00 3.38 3.38 71 1020.9
20260503041825 14 116 0.0 0.0 0.00 3.38 3.38 72 1020.8
20260503041323 14 116 0.0 0.0 0.00 3.38 3.38 70 1020.9
20260503040820 14 116 0.0 0.0 0.00 3.38 3.38 70 1020.7
20260503040318 15 116 0.0 0.0 0.00 3.38 3.38 70 1020.8
20260503035815 15 116 0.0 0.0 0.00 3.38 3.38 68 1020.6
20260503035312 15 116 0.0 0.0 0.00 3.38 3.38 69 1020.7
20260503034809 15 116 0.0 0.0 0.00 3.38 3.38 68 1020.6
20260503034306 15 118 0.0 0.0 0.00 3.38 3.38 69 1020.5
20260503033803 15 117 0.0 1.6 0.00 3.38 3.38 67 1020.6
20260503033301 15 118 1.6 1.6 0.00 3.38 3.38 69 1020.4
20260503032759 15 116 0.0 1.6 0.00 3.38 3.38 68 1020.4
20260503032257 15 117 0.0 0.0 0.00 3.38 3.38 68 1020.2
20260503031754 15 123 1.6 1.6 0.00 3.38 3.38 69 1020.1
20260503031252 15 117 0.0 0.0 0.00 3.38 3.38 68 1020.2
20260503030748 15 115 1.6 1.6 0.00 3.38 3.38 68 1020.2
20260503030245 15 116 0.0 0.0 0.00 3.38 3.38 68 1020.2
20260503025741 16 120 1.6 1.6 0.00 3.38 3.38 69 1020.0
20260503025239 16 120 1.6 1.6 0.00 3.38 3.38 67 1020.0
20260503024736 16 118 0.0 0.0 0.00 3.38 3.38 67 1020.2
20260503024233 16 118 0.0 0.0 0.00 3.38 3.38 66 1019.8